Las Cruces, NM

4:46 PM MDT on March 30, 2017 (GMT -0600)
Las Cruces International

Weather History for KLRU - March, 2014

Change the Weather History Date:

Wednesday, March 12, 2014

  Actual Average Record
Temperature  
Mean Temperature 48 °F -  
Max Temperature 58 °F 64 °F 78 °F (2003)
Min Temperature 39 °F 39 °F 33 °F (2001)
Degree Days  
Heating Degree Days 16    
Moisture  
Dew Point 18 °F    
Average Humidity 31    
Maximum Humidity 49    
Minimum Humidity 12    
Precipitation  
Precipitation 0.00 in - - ()
Sea Level Pressure  
Sea Level Pressure 30.23 in    
Wind  
Wind Speed 8 mph (SE)    
Max Wind Speed 16 mph    
Max Gust Speed 23 mph    
Visibility 10 miles    
Events      
Averages and records for this station are not official NWS values.
T = Trace of Precipitation, MM = Missing Value Source: NWS Daily Summary

Daily Weather History Graph

Daily Weather History Graph

Search for Another Location

Airport or City:

Trip Planner

Search our weather history database for the weather conditions in past years. The results will help you decide how hot, cold, wet, or windy it might be!

Date:

Astronomy

Mar. 12, 2014 Rise Set
Actual Time 7:21 AM MDT 7:13 PM MDT
Civil Twilight 6:57 AM MDT 7:38 PM MDT
Nautical Twilight 6:28 AM MDT 8:06 PM MDT
Astronomical Twilight 6:00 AM MDT 8:35 PM MDT
Moon 3:56 PM MDT (3/12) 4:44 AM MDT (3/12)
Length of Visible Light 12h 40m
Length of Day
11h 51m
Waxing Gibbous, 86% of the Moon is Illuminated
Mar 12
Waxing Gibbous
Mar 16
Full
Mar 23
Last Quarter
Mar 30
New
Apr 7
First Quarter

Hourly Weather History & Observations

Time (MDT) Temp. Windchill Dew Point Humidity Pressure Visibility Wind Dir Wind Speed Gust Speed Precip Events Conditions
12:15 AM 53.6 °F - 14.9 °F 22% 30.01 in 10.0 mi WNW 10.4 mph - N/A   Clear
12:35 AM 55.0 °F - 7.5 °F 15% 30.01 in 10.0 mi NNW 10.4 mph - N/A   Clear
12:55 AM 55.8 °F - 3.7 °F 12% 30.03 in 10.0 mi NNE 9.2 mph - N/A   Clear
1:15 AM 53.6 °F - 4.8 °F 14% 30.04 in 10.0 mi North 6.9 mph - N/A   Clear
1:35 AM 53.1 °F - 7.2 °F 16% 30.04 in 10.0 mi NNW 10.4 mph - N/A   Clear
1:55 AM 49.8 °F - 7.5 °F 18% 30.07 in 10.0 mi North 4.6 mph - N/A   Clear
2:15 AM 49.5 °F - 15.3 °F 26% 30.08 in 7.0 mi SE 4.6 mph - N/A   Clear
2:35 AM 50.2 °F - 22.8 °F 34% 30.09 in 4.0 mi SSE 12.7 mph 17.3 mph N/A   Haze
2:55 AM 48.9 °F - 22.8 °F 36% 30.09 in 5.0 mi SSE 5.8 mph - N/A   Haze
3:15 AM 48.4 °F - 23.0 °F 37% 30.10 in 5.0 mi Calm Calm - N/A   Overcast
3:35 AM 47.7 °F - 23.9 °F 39% 30.11 in 7.0 mi East 3.5 mph - N/A   Overcast
3:55 AM 46.6 °F - 24.4 °F 42% 30.12 in 7.0 mi Calm Calm - N/A   Mostly Cloudy
4:15 AM 45.9 °F 43.6 °F 24.6 °F 43% 30.13 in 10.0 mi WSW 4.6 mph - N/A   Mostly Cloudy
4:35 AM 44.6 °F 40.2 °F 24.6 °F 45% 30.14 in 10.0 mi South 8.1 mph - N/A   Overcast
4:55 AM 43.7 °F 40.3 °F 24.4 °F 47% 30.16 in 10.0 mi SE 5.8 mph - N/A   Overcast
5:15 AM 42.6 °F - 23.9 °F 48% 30.17 in 10.0 mi Calm Calm - N/A   Overcast
5:35 AM 42.1 °F 38.4 °F 23.9 °F 49% 30.19 in 10.0 mi South 5.8 mph - N/A   Overcast
5:55 AM 42.4 °F 40.7 °F 23.4 °F 47% 30.20 in 10.0 mi WNW 3.5 mph - N/A   Overcast
6:15 AM 41.7 °F 37.3 °F 23.0 °F 47% 30.21 in 10.0 mi West 6.9 mph - N/A   Overcast
6:35 AM 41.7 °F 38.8 °F 21.6 °F 45% 30.23 in 10.0 mi WSW 4.6 mph - N/A   Overcast
6:55 AM 40.8 °F 37.8 °F 21.2 °F 46% 30.25 in 10.0 mi SSW 4.6 mph - N/A   Overcast
7:15 AM 41.2 °F - 19.4 °F 42% 30.27 in 10.0 mi Calm Calm - N/A   Overcast
7:35 AM 39.7 °F 37.6 °F 19.4 °F 44% 30.28 in 10.0 mi West 3.5 mph - N/A   Overcast
7:55 AM 40.1 °F 36.9 °F 19.4 °F 43% 30.29 in 10.0 mi West 4.6 mph - N/A   Overcast
8:15 AM 40.3 °F 37.1 °F 20.3 °F 45% 30.30 in 10.0 mi WSW 4.6 mph - N/A   Mostly Cloudy
8:35 AM 40.8 °F 36.9 °F 20.5 °F 44% 30.31 in 10.0 mi SW 5.8 mph - N/A   Scattered Clouds
8:55 AM 41.9 °F 40.0 °F 20.1 °F 42% 30.32 in 10.0 mi West 3.5 mph - N/A   Scattered Clouds
9:15 AM 42.8 °F 38.6 °F 21.6 °F 43% 30.33 in 10.0 mi WSW 6.9 mph - N/A   Scattered Clouds
9:35 AM 43.3 °F 38.1 °F 21.2 °F 41% 30.33 in 10.0 mi West 9.2 mph - N/A   Clear
9:55 AM 45.0 °F 41.8 °F 20.3 °F 38% 30.34 in 10.0 mi WNW 5.8 mph - N/A   Clear
10:15 AM 45.5 °F - 20.7 °F 37% 30.34 in 10.0 mi Calm Calm - N/A   Clear
10:35 AM 47.7 °F - 20.3 °F 34% 30.35 in 10.0 mi SE 6.9 mph - N/A   Clear
10:55 AM 49.1 °F - 19.4 °F 31% 30.35 in 10.0 mi SE 15.0 mph 23.0 mph N/A   Clear
11:15 AM 49.6 °F - 19.2 °F 30% 30.34 in 10.0 mi ESE 15.0 mph 19.6 mph N/A   Clear
11:35 AM 50.5 °F - 19.6 °F 30% 30.34 in 10.0 mi SE 15.0 mph 20.7 mph N/A   Clear
12:15 PM 52.5 °F - 19.4 °F 27% 30.33 in 10.0 mi ESE 12.7 mph 18.4 mph N/A   Clear
12:35 PM 53.1 °F - 19.2 °F 27% 30.32 in 10.0 mi ESE 8.1 mph 20.7 mph N/A   Clear
12:55 PM 54.3 °F - 19.2 °F 25% 30.32 in 10.0 mi SE 12.7 mph 18.4 mph N/A   Clear
1:15 PM 54.9 °F - 18.9 °F 24% 30.31 in 10.0 mi SE 13.8 mph 18.4 mph N/A   Clear
1:35 PM 54.9 °F - 18.9 °F 24% 30.29 in 10.0 mi SE 13.8 mph 18.4 mph N/A   Clear
1:55 PM 55.2 °F - 18.5 °F 24% 30.28 in 10.0 mi SE 10.4 mph 20.7 mph N/A   Clear
2:15 PM 56.1 °F - 18.7 °F 23% 30.27 in 10.0 mi ESE 11.5 mph 16.1 mph N/A   Clear
2:35 PM 55.8 °F - 18.5 °F 23% 30.26 in 10.0 mi ESE 13.8 mph - N/A   Clear
2:55 PM 56.1 °F - 18.3 °F 23% 30.25 in 10.0 mi SSE 10.4 mph 19.6 mph N/A   Clear
3:15 PM 56.8 °F - 18.0 °F 22% 30.25 in 10.0 mi ESE 10.4 mph 20.7 mph N/A   Clear
3:35 PM 57.2 °F - 18.0 °F 22% 30.24 in 10.0 mi East 11.5 mph 18.4 mph N/A   Clear
3:55 PM 57.6 °F - 17.6 °F 21% 30.24 in 10.0 mi SE 16.1 mph 20.7 mph N/A   Clear
4:15 PM 58.1 °F - 17.1 °F 20% 30.23 in 10.0 mi ESE 15.0 mph 19.6 mph N/A   Clear
4:35 PM 57.2 °F - 16.5 °F 20% 30.23 in 10.0 mi ESE 12.7 mph 19.6 mph N/A   Clear
4:55 PM 57.0 °F - 16.2 °F 20% 30.22 in 10.0 mi ESE 15.0 mph 18.4 mph N/A   Clear
5:15 PM 56.8 °F - 15.6 °F 20% 30.22 in 10.0 mi SE 11.5 mph - N/A   Clear
5:35 PM 56.5 °F - 15.4 °F 20% 30.22 in 10.0 mi SE 13.8 mph 19.6 mph N/A   Clear
5:55 PM 56.3 °F - 15.4 °F 20% 30.23 in 10.0 mi SE 12.7 mph - N/A   Clear
6:15 PM 55.4 °F - 15.4 °F 21% 30.23 in 10.0 mi SE 13.8 mph - N/A   Clear
6:35 PM 54.5 °F - 15.6 °F 22% 30.23 in 10.0 mi SE 11.5 mph 19.6 mph N/A   Clear
6:55 PM 53.6 °F - 15.8 °F 22% 30.23 in 10.0 mi SE 15.0 mph - N/A   Clear
7:15 PM 52.5 °F - 16.2 °F 24% 30.23 in 10.0 mi SE 12.7 mph - N/A   Clear
7:35 PM 51.6 °F - 16.3 °F 25% 30.23 in 10.0 mi SE 8.1 mph - N/A   Clear
7:55 PM 50.4 °F - 16.5 °F 26% 30.24 in 10.0 mi SE 8.1 mph - N/A   Clear
8:15 PM 49.3 °F - 16.2 °F 27% 30.25 in 10.0 mi SSE 6.9 mph - N/A   Clear
8:35 PM 48.4 °F - 16.0 °F 27% 30.25 in 10.0 mi SE 6.9 mph - N/A   Clear
8:55 PM 47.7 °F - 16.2 °F 28% 30.26 in 10.0 mi SE 6.9 mph - N/A   Clear
9:15 PM 46.8 °F - 16.3 °F 30% 30.27 in 10.0 mi SE 5.8 mph - N/A   Clear
9:35 PM 46.4 °F 42.9 °F 16.2 °F 30% 30.27 in 10.0 mi SE 6.9 mph - N/A   Clear
9:55 PM 45.9 °F 41.7 °F 16.0 °F 30% 30.27 in 10.0 mi SE 8.1 mph - N/A   Clear
10:15 PM 44.8 °F 41.6 °F 16.0 °F 31% 30.27 in 10.0 mi SSE 5.8 mph - N/A   Clear
10:35 PM 43.7 °F 40.3 °F 16.3 °F 33% 30.27 in 10.0 mi SSE 5.8 mph - N/A   Clear
10:55 PM 43.7 °F 39.7 °F 16.5 °F 34% 30.28 in 10.0 mi SSE 6.9 mph - N/A   Clear
11:15 PM 43.2 °F 38.4 °F 16.5 °F 34% 30.27 in 10.0 mi SE 8.1 mph - N/A   Clear
11:35 PM 43.5 °F 38.9 °F 16.5 °F 34% 30.27 in 10.0 mi SE 8.1 mph - N/A   Clear
11:55 PM 42.4 °F 38.1 °F 16.0 °F 34% 30.27 in 10.0 mi SE 6.9 mph - N/A   Clear